Location: La Tine
(46.4708°N, 7.0525°E)
Time: 07:16:29
(UTC+00:00)

Meteor 1-24 Rocket - Pass Details

Date: 18 January 2021
Orbit: 790 x 927 km, 81.3° (Epoch: 24 February)

Event Time Altitude Azimuth Distance (km) Brightness Sun altitude
Rises 17:59:08 0° 202° (SSW) 3,330 7.3 -17.4°
Reaches altitude 10° 18:01:35 10° 207° (SSW) 2,387 6.6 -17.9°
Maximum altitude 18:06:51 55° 285° (WNW) 955 4.3 -18.7°
Drops below altitude 10° 18:12:04 10° 3° (N) 2,367 5.9 -19.6°
Sets 18:14:30 0° 8° (N) 3,301 6.6 -20.0°
